Regional Weather Roundup
Issued by NWS

Home | Current Version | Previous Version | Graphics & Text | Print | Product List | Glossary On
Versions: 1 2 3 4 5 6 7 8 9 10 11 12 13 14 15 16 17 18 19 20 21 22 23 24 25 26 27 28 29 30 31 32 33 34 35 36 37 38 39 40 41 42 43 44 45 46 47 48 49 50
000
ASUS43 KIND 192000
RWRIN

WEATHER ROUNDUP FOR INDIANA
NATIONAL WEATHER SERVICE INDIANAPOLIS IN
400 PM EDT THU OCT 19 2017

NOTE: "FAIR" INDICATES FEW OR NO CLOUDS BELOW 12,000 FEET WITH NO
SIGNIFICANT WEATHER AND/OR OBSTRUCTIONS TO VISIBILITY.

* - STATION DOES NOT REPORT WEATHER SUCH AS PRECIPITATION OR FOG.

+ - STATION NOT QUALITY CONTROLLED BY THE NATIONAL WEATHER SERVICE.
    USE DATA WITH CAUTION...ESPECIALLY DEWPOINT AND RELATIVE
    HUMIDITY OBSERVATIONS.

INZ001>003-010>013-019-020-192100-
NORTHWEST INDIANA

CITY           SKY/WX    TMP DP  RH WIND       PRES   REMARKS
GARY /AIRPORT/ PTSUNNY   66  25  20 NE6       30.19S
KNOX *+        FAIR      70  32  24 NW6       30.17S
LA PORTE +     FAIR      66  32  28 N6        30.19R
MICHIGAN CITY+ FAIR      63  37  39 N6        30.19S
MONTICELLO +   FAIR      74  48  40 W6        30.16S
RENSSELAER +   FAIR      72  32  23 SW5       30.17S

$$

LMZ046-743>745-192100-
SOUTHERN LAKE MICHIGAN

STATION/POSITION TIME  TEMP    WIND        PRES    WAVE
                       AIR SEA DIR/SP/G            HT
                 (UTC) (F)     (DEG/KT/KT) (MB)    (FT)
BURNS HARBOR     1940   60      20/  5/  6 1022.7S
MICHIGAN CITY    1930   65     350/  5/  6   N/A
5NW MICH CITY    1950   60 59  360/  2/  4   N/A     1

$$

INZ004-005-014>016-021>024-192100-
NORTH CENTRAL INDIANA

CITY           SKY/WX    TMP DP  RH WIND       PRES   REMARKS
ELKHART        FAIR      68  30  24 NW12      30.17S
GOSHEN         FAIR      68  35  29 NW8       30.16S
PERU/GRISSOM   FAIR      73  51  46 W6        30.16F
SOUTH BEND     FAIR      66  29  24 NW6       30.18S
WARSAW +       FAIR      70  41  35 W7        30.17R

$$

INZ006>009-017-018-025>027-192100-
NORTHEAST INDIANA

CITY           SKY/WX    TMP DP  RH WIND       PRES   REMARKS
AUBURN +       FAIR      70  39  32 W7        30.16S
FORT WAYNE     FAIR      72  49  44 W10       30.16S
KENDALLVILLE + FAIR      70  40  33 NW6       30.16S

$$

INZ028-029-035-036-043>045-051>053-192100-
WEST CENTRAL INDIANA

CITY           SKY/WX    TMP DP  RH WIND       PRES   REMARKS
GREENCASTLE +  FAIR      72  50  46 S6        30.19S
LAFAYETTE      FAIR      72  53  51 W8        30.16F
TERRE HAUTE    FAIR      74  50  42 S6        30.18F

$$

INZ030>032-037>040-046>048-054>057-064-065-192100-
CENTRAL INDIANA

CITY           SKY/WX    TMP DP  RH WIND       PRES   REMARKS
ANDERSON       SUNNY     72  50  46 W12       30.18F
COLUMBUS       SUNNY     73  43  33 SW7       30.19S
FRANKFORT +    PTSUNNY   76  53  44 W8        30.19S
GREENWOOD *+   FAIR      78  52  40 W7        30.19S
INDIANAPOLIS   FAIR      74  51  44 SW8       30.18S
-EAGLE CREEK   FAIR      74  50  42 SW5       30.17S
KOKOMO +       FAIR      72  52  49 W8        30.18S
MT COMFORT *+  FAIR      73  55  53 W5        30.19S
SHELBYVILLE    FAIR      75  49  39 SW7       30.18S

$$

INZ033-034-041-042-049-050-058-059-192100-
EAST CENTRAL INDIANA

CITY           SKY/WX    TMP DP  RH WIND       PRES   REMARKS
MUNCIE         FAIR      74  49  41 SW9       30.17F
RICHMOND +     FLURRIES  72  48  43 W12G17    30.20S

$$

INZ060-061-067>069-081>083-085>088-192100-
SOUTHWEST INDIANA

CITY           SKY/WX    TMP DP  RH WIND       PRES   REMARKS
EVANSVILLE     FAIR      75  51  43 SW9       30.19F
HUNTINGBURG +  FAIR      74  53  48 S9        30.20

$$

INZ062-063-066-070>080-084-089>092-192100-
SOUTH CENTRAL AND SOUTHEAST INDIANA

CITY           SKY/WX    TMP DP  RH WIND       PRES   REMARKS
BLOOMINGTON    FAIR      74  50  42 S8        30.19S
MADISON *+     FAIR      73  46  38 S9        30.23R
SEYMOUR +      FAIR      77  50  38 SW13      30.19S

$$




USA.gov is the U.S. government's official web portal to all federal, state and local government web resources and services.